Regional Weather Roundup
Issued by NWS

Home | Current Version | Previous Version | Graphics & Text | Print | Product List | Glossary On
Versions: 1 2 3 4 5 6 7 8 9 10 11 12 13 14 15 16 17 18 19 20 21 22 23 24 25 26 27 28 29 30 31 32 33 34 35 36 37 38 39 40 41 42 43 44 45 46 47 48 49 50
000
ASUS44 KMEG 250110
RWRTN
TENNESSEE HOURLY STATE WEATHER ROUNDUP
NATIONAL WEATHER SERVICE MEMPHIS TN
800 PM CDT THU APR 24 2014

TNZ002-004-019-021-049-052-054-088>092-250200-
WEST TENNESSEE

CITY           SKY/WX    TMP DP  RH WIND       PRES   REMARKS
MEMPHIS INTL   TSTM      64  63  94 NW3       29.76R FOG
NWS MEMPHIS      N/A     65 N/A N/A MISG        N/A
JACKSON        LGT RAIN  64  61  90 E3        29.72F
DYERSBURG      CLOUDY    70  52  52 S9G20     29.69R
UNION CITY     CLEAR     66  55  68 SE9       29.66F
PARIS          CLOUDY    70  50  49 SE15      29.67F
LEXINGTON      CLEAR     73  52  46 S5        29.74F
SILERTON         N/A     64  63  96 N2          N/A
SAVANNAH       CLOUDY    73  54  51 CALM      29.76F
$$

TNZ008-025-027-028-033-062-065-066-250200-
NORTH MIDDLE TENNESSEE

CITY           SKY/WX    TMP DP  RH WIND       PRES   REMARKS
NASHVILLE      MOCLDY    72  49  44 S9        29.80S
DICKSON        MOCLDY    73  46  38 S7        29.78F
PORTLAND         N/A     70  46  43 S6        29.79
CLARKSVILLE    CLOUDY    72  48  42 S8        29.74F
SMYRNA         MOCLDY    72  50  45 S3        29.81S
MURFREESBORO   MOCLDY    73  49  42 S6        29.81
COOKEVILLE     CLEAR     68  46  45 S6        29.84F
LIVINGSTON     CLEAR     68  40  35 S3        29.86
GALLATIN       MOCLDY    72  50  45 S5        29.81
CROSSVILLE     CLEAR     68  39  34 S5        29.90R
$$

TNZ061-075-076-078-094-096-097-250200-
SOUTH MIDDLE TENNESSEE

CITY           SKY/WX    TMP DP  RH WIND       PRES   REMARKS
LEWISBURG      MOCLDY    69  54  58 S5        29.81S
FAYETTEVILLE   MOCLDY    71  51  49 S6        29.84
TULLAHOMA      PTCLDY    72  48  43 S3        29.86S
WINCHESTER     CLEAR     70  50  49 S6        29.86S
MCMINNVILLE    CLEAR     72  50  46 CALM      29.85F
COLUMBIA       CLEAR     72  57  60 S5        29.79F
SHELBYVILLE    MOCLDY    72  54  53 S6        29.84R
$$

TNZ017-018-042-046-047-250200-
NORTHEAST TENNESSEE

CITY           SKY/WX    TMP DP  RH WIND       PRES   REMARKS
TRI CITIES     MOCLDY    58  36  43 N3        29.90S
ELIZABETHTON   CLEAR     55  37  50 CALM      29.92S
$$

TNZ012-013-036-069-073-074-250200-
CENTRAL EAST TENNESSEE

CITY           SKY/WX    TMP DP  RH WIND       PRES   REMARKS
KNOXVILLE      MOCLDY    69  38  32 S3        29.88R
OAK RIDGE      MOCLDY    72  39  30 S3        29.89R
$$

TNZ083-085-099-250200-
SOUTHEAST TENNESSEE

CITY           SKY/WX    TMP DP  RH WIND       PRES   REMARKS
CHATTANOOGA    MOCLDY    74  48  39 SE5       29.88R
$$

SKY/WX REPORTED AS FAIR MEANS FEW OR NO CLOUDS BELOW
12 THOUSAND FEET.




USA.gov is the U.S. government's official web portal to all federal, state and local government web resources and services.